[[{"header":{"parameterUnit":"m.s-1","parameterCategory":2,"la1":30.2991,"la2":30.254,"lo1":-89.0895,"lo2":-89.0444,"dy":0.0017,"dx":0.0017,"nx":28,"ny":28,"refTime":"2023-10-30T21:00:00:Z","depth":"0","parameterNumber":2,"parameterNumberName":"U-component_of_CURRENTS"},"data":[0,0,0,0,0,0,0,0,0,0,0,0,0,0,0,0,0,0,0,0,0,0,0,0,0,0,0,0,0,0,0,0,0,0,0,0,0,0,0,0,0,0,0,0,0,0,0,0,0,0,0,0,0,0,0,0,0,0,-0.1536,-0.1536,0,-0.1537,-0.1537,-0.1536,-0.1527,-0.1527,-0.1527,-0.1526,-0.1502,-0.1502,-0.1501,0,0,0,0,0,0,0,0,0,0,0,0,0,-0.1467,-0.1469,-0.1536,-0.1536,-0.1536,-0.1537,-0.1537,-0.1536,-0.1527,-0.1527,-0.1527,-0.1526,-0.1503,-0.1502,-0.1501,0,0,0,0,0,0,0,0,0,0,0,0,0,-0.1485,-0.1469,-0.1536,-0.1532,-0.1532,-0.1537,-0.1537,-0.1536,-0.1527,-0.1527,-0.1527,-0.1526,-0.1503,-0.1502,-0.1501,-0.1502,0,0,-0.1499,-0.1499,0,0,0,0,0,0,0,0,-0.1484,-0.1487,-0.1533,-0.1532,-0.1532,-0.1532,-0.1503,-0.1524,-0.1527,-0.1528,-0.1526,-0.1526,-0.1511,-0.151,-0.1509,-0.1501,-0.15,-0.1499,-0.1499,-0.1498,-0.1498,0,0,0,0,0,0,0,-0.1483,-0.1487,-0.1535,-0.1533,-0.1532,-0.151,-0.1513,-0.1507,-0.152,-0.1528,-0.1527,-0.1529,-0.151,-0.151,-0.1509,-0.15,-0.1499,-0.1498,-0.1498,-0.1498,-0.1522,-0.1523,0,0,0,0,0,0,-0.1488,-0.1486,-0.1535,-0.1535,-0.1508,-0.1512,-0.1515,-0.1532,-0.152,-0.1519,-0.1529,-0.1529,-0.1511,-0.1509,-0.1508,-0.1508,-0.1498,-0.1498,-0.1497,-0.1521,-0.1523,-0.1524,0,0,0,0,0,0,-0.1487,-0.1493,-0.1535,-0.151,-0.1514,-0.1514,-0.1533,-0.1532,-0.1529,-0.1522,-0.1519,-0.1527,-0.1511,-0.1509,-0.1497,-0.1507,-0.1497,-0.1497,-0.152,-0.1522,-0.1523,-0.1508,0,0,0,0,0,0,-0.1485,-0.1493,-0.1508,-0.1511,-0.1516,-0.1535,-0.1533,-0.1532,-0.1531,-0.153,-0.1519,-0.1517,-0.1511,-0.1498,-0.1497,-0.1505,-0.1496,-0.1519,-0.1521,-0.1523,-0.1507,-0.1508,-0.151,0,0,0,0,0,-0.1483,-0.149,-0.1509,-0.1515,-0.1537,-0.1535,-0.1534,-0.1532,-0.1531,-0.1528,-0.152,-0.1517,-0.1511,-0.1498,-0.1496,-0.1504,-0.1518,-0.152,-0.1522,-0.1506,-0.1508,-0.151,0,0,0,0,0,0,-0.1466,-0.1491,-0.1511,-0.1527,-0.1535,-0.1533,-0.1526,-0.1532,-0.1524,-0.1517,-0.1514,-0.1511,-0.1512,-0.1513,-0.1499,-0.1523,-0.1521,-0.1523,-0.1509,-0.1511,-0.1513,-0.1522,-0.1496,0,0,0,0,0,-0.1474,-0.1488,-0.1508,-0.1522,-0.1522,-0.1528,-0.1527,-0.1527,-0.1522,-0.1518,-0.1519,-0.1521,-0.1523,-0.1518,-0.1522,-0.1521,-0.1528,-0.1534,-0.1536,-0.1537,-0.1546,-0.1556,-0.1559,-0.1532,-0.1532,-0.1532,0,0,-0.1477,-0.1488,-0.1501,-0.152,-0.152,-0.1531,-0.1525,-0.1518,-0.1532,-0.1516,-0.1528,-0.1523,-0.1525,-0.1529,-0.1531,-0.1526,-0.1549,-0.154,-0.154,-0.155,-0.1559,-0.1561,-0.1564,-0.1533,-0.1533,-0.1533,0,0,-0.1472,-0.1493,-0.15,-0.1506,-0.151,-0.1519,-0.1519,-0.1525,-0.1528,-0.1534,-0.1535,-0.1534,-0.1537,-0.1544,-0.1545,-0.1561,-0.1559,-0.1568,-0.1575,-0.1584,-0.1586,-0.1587,-0.1595,-0.1598,-0.1565,-0.1565,-0.1565,0,-0.1478,-0.1491,-0.1499,-0.1502,-0.1501,-0.1518,-0.1517,-0.1535,-0.1542,-0.154,-0.1537,-0.1551,-0.1549,-0.1558,-0.1565,-0.1564,-0.1566,-0.1559,-0.1583,-0.1585,-0.1587,-0.1595,-0.1598,-0.1565,-0.1565,-0.1565,-0.1565,0,-0.1474,-0.149,-0.1483,-0.1508,-0.1509,-0.1504,-0.1527,-0.1539,-0.1545,-0.156,-0.1566,-0.1566,-0.1573,-0.1578,-0.1571,-0.1591,-0.1586,-0.1582,-0.1571,-0.1589,-0.1597,-0.16,-0.1564,-0.1564,-0.1564,-0.1564,0,0,-0.1475,-0.1485,-0.1481,-0.1493,-0.1502,-0.1506,-0.1524,-0.154,-0.1556,-0.157,-0.1578,-0.159,-0.159,-0.1595,-0.1594,-0.1603,-0.1615,-0.1596,-0.1597,-0.1592,-0.1631,-0.1649,-0.1654,-0.1605,-0.1605,-0.1606,-0.1628,0,-0.147,-0.147,-0.1473,-0.1488,-0.1493,-0.1504,-0.1523,-0.1541,-0.1556,-0.1578,-0.1582,-0.1593,-0.1599,-0.1592,-0.1606,-0.1613,-0.1624,-0.1609,-0.1627,-0.1628,-0.1631,-0.1659,-0.1639,-0.1659,-0.1631,-0.1632,-0.1632,0,-0.1455,-0.1463,-0.1455,-0.1479,-0.1478,-0.1496,-0.1511,-0.1528,-0.1558,-0.1566,-0.1579,-0.1588,-0.1609,-0.1607,-0.1639,-0.1625,-0.1633,-0.164,-0.164,-0.1667,-0.1652,-0.164,-0.1666,-0.1663,-0.1637,-0.1637,-0.1637,0,-0.1424,-0.1447,-0.1436,-0.1442,-0.1474,-0.1474,-0.1492,-0.1516,-0.1512,-0.1556,-0.1554,-0.1593,-0.1601,-0.1622,-0.1649,-0.1637,-0.1682,-0.1665,-0.1691,-0.1692,-0.1687,-0.1687,-0.1704,-0.169,-0.169,-0.169,-0.169,0,-0.1394,-0.1394,-0.1431,-0.1427,-0.1424,-0.1457,-0.145,-0.1476,-0.1498,-0.1506,-0.1544,-0.1565,-0.1604,-0.1633,-0.1653,-0.1694,-0.1689,-0.1706,-0.1705,-0.1683,-0.1682,-0.1689,-0.1661,-0.1691,-0.1691,-0.1691,-0.1691,0,-0.1334,-0.1355,-0.1353,-0.1391,-0.1398,-0.1388,-0.1394,-0.1407,-0.1441,-0.1451,-0.1457,-0.1531,-0.1596,-0.1634,-0.1682,-0.17,-0.1705,-0.1745,-0.172,-0.1717,-0.1736,-0.1708,-0.1662,-0.1621,-0.1774,-0.1775,-0.1775,0,-0.1294,-0.1289,-0.1301,-0.1292,-0.1302,-0.1303,-0.1306,-0.1351,-0.1366,-0.144,-0.1448,-0.1521,-0.1588,-0.1673,-0.1739,-0.1789,-0.1729,-0.1772,-0.1754,-0.175,-0.1717,-0.1645,-0.1609,-0.1735,-0.1735,-0.1736,-0.1736,0,-0.1225,-0.1223,-0.1216,-0.1205,-0.1206,-0.1201,-0.1225,-0.123,-0.1306,-0.1347,-0.1436,-0.1497,-0.1623,-0.1705,-0.1779,-0.1795,-0.1717,-0.1777,-0.1775,-0.17,-0.1619,-0.1575,-0.1706,-0.1737,-0.1737,-0.1737,-0.1737,-0.1737,-0.1152,-0.1134,-0.1131,-0.1111,-0.1113,-0.1125,-0.1114,-0.1185,-0.1222,-0.1322,-0.141,-0.1533,-0.1641,-0.1771,-0.18,-0.1828,-0.1757,-0.1777,-0.1746,-0.1677,-0.163,-0.1773,-0.1803,-0.1803,-0.1804,-0.1804,-0.1804,0,-0.1085,-0.1082,-0.1053,-0.1038,-0.1027,-0.1051,-0.1078,-0.1092,-0.116,-0.1309,-0.1407,-0.1596,-0.1688,-0.178,-0.1856,-0.181,-0.1737,-0.1745,-0.1639,-0.1605,-0.1749,-0.1743,-0.176,-0.176,-0.176,-0.176,-0.176,-0.176,-0.1041,-0.1007,-0.1,-0.0965,-0.0963,-0.0945,-0.0955,-0.1011,-0.1098,-0.1294,-0.146,-0.1614,-0.1823,-0.1885,-0.1854,-0.1778,-0.1665,-0.1601,-0.1571,-0.1691,-0.1691,-0.1692,-0.1683,-0.1686,-0.1686,-0.14,-0.1398,-0.1396]},{"header":{"parameterUnit":"m.s-1","parameterCategory":2,"la1":30.2991,"la2":30.254,"lo1":-89.0895,"lo2":-89.0444,"dy":0.0017,"dx":0.0017,"nx":28,"ny":28,"refTime":"2023-10-30T21:00:00:Z","depth":"0","parameterNumber":3,"parameterNumberName":"V-component_of_CURRENTS"},"data":[0,0,0,0,0,0,0,0,0,0,0,0,0,0,0,0,0,0,0,0,0,0,0,0,0,0,0,0,0,0,0,0,0,0,0,0,0,0,0,0,0,0,0,0,0,0,0,0,0,0,0,0,0,0,0,0,0,0,-0.0719,-0.0718,0,-0.0605,-0.0604,-0.0603,-0.0544,-0.0544,-0.0543,-0.0543,-0.0483,-0.0482,-0.0481,0,0,0,0,0,0,0,0,0,0,0,0,0,-0.0703,-0.0705,-0.0719,-0.0717,-0.0716,-0.0605,-0.0604,-0.0603,-0.0544,-0.0544,-0.0543,-0.0543,-0.0484,-0.0482,-0.0481,0,0,0,0,0,0,0,0,0,0,0,0,0,-0.0666,-0.0706,-0.0719,-0.067,-0.0665,-0.0605,-0.0604,-0.0602,-0.0544,-0.0544,-0.0543,-0.0543,-0.0484,-0.0482,-0.048,-0.0481,0,0,-0.0475,-0.0474,0,0,0,0,0,0,0,0,-0.0668,-0.0667,-0.0679,-0.0674,-0.0667,-0.0585,-0.0576,-0.0563,-0.0545,-0.0594,-0.0543,-0.0542,-0.052,-0.0515,-0.05,-0.0478,-0.0476,-0.0475,-0.0474,-0.0473,-0.0472,0,0,0,0,0,0,0,-0.0671,-0.067,-0.0678,-0.0678,-0.067,-0.0591,-0.0587,-0.0572,-0.0566,-0.059,-0.0584,-0.0566,-0.0518,-0.0502,-0.0498,-0.0475,-0.0475,-0.0473,-0.0472,-0.0471,-0.0456,-0.0457,0,0,0,0,0,0,-0.0689,-0.0674,-0.0681,-0.0674,-0.0662,-0.0592,-0.0588,-0.0615,-0.0564,-0.0555,-0.0566,-0.0563,-0.0505,-0.05,-0.0496,-0.0487,-0.0473,-0.0471,-0.047,-0.0455,-0.0456,-0.0457,0,0,0,0,0,0,-0.069,-0.0693,-0.0686,-0.0665,-0.0658,-0.0594,-0.0624,-0.0613,-0.0579,-0.0546,-0.0538,-0.0541,-0.0504,-0.0498,-0.0476,-0.0485,-0.047,-0.0469,-0.0455,-0.0456,-0.0457,-0.0475,0,0,0,0,0,0,-0.0691,-0.0695,-0.0704,-0.0669,-0.066,-0.0638,-0.0624,-0.0611,-0.0568,-0.0562,-0.0522,-0.0516,-0.0503,-0.0479,-0.0475,-0.0482,-0.0467,-0.0454,-0.0455,-0.0456,-0.0473,-0.0476,-0.0479,0,0,0,0,0,-0.0691,-0.0686,-0.0707,-0.0705,-0.0683,-0.0637,-0.0625,-0.0577,-0.0567,-0.0547,-0.053,-0.0517,-0.0485,-0.0478,-0.0472,-0.048,-0.0453,-0.0455,-0.0456,-0.0472,-0.0476,-0.0479,0,0,0,0,0,0,-0.066,-0.0678,-0.07,-0.0699,-0.0674,-0.0625,-0.0584,-0.0571,-0.054,-0.0536,-0.0515,-0.0509,-0.0497,-0.0487,-0.048,-0.0482,-0.0471,-0.0472,-0.0485,-0.0489,-0.0491,-0.0503,-0.0466,0,0,0,0,0,-0.0671,-0.0695,-0.0683,-0.0685,-0.0667,-0.0634,-0.0604,-0.0586,-0.0555,-0.0539,-0.0525,-0.0512,-0.0503,-0.0492,-0.0483,-0.0475,-0.0468,-0.0481,-0.0484,-0.0486,-0.0493,-0.0487,-0.049,-0.0462,-0.0462,-0.0462,0,0,-0.0667,-0.0672,-0.069,-0.0682,-0.0656,-0.0642,-0.0613,-0.0569,-0.0574,-0.054,-0.0535,-0.0517,-0.0503,-0.0499,-0.0494,-0.0488,-0.0491,-0.0488,-0.049,-0.0496,-0.0489,-0.0492,-0.0494,-0.0463,-0.0463,-0.0463,0,0,-0.0652,-0.067,-0.068,-0.0666,-0.0634,-0.062,-0.061,-0.0577,-0.057,-0.0563,-0.0551,-0.0541,-0.0519,-0.052,-0.0515,-0.0529,-0.0506,-0.0522,-0.0541,-0.0535,-0.0537,-0.0539,-0.0532,-0.0533,-0.0523,-0.0523,-0.0523,0,-0.0644,-0.0674,-0.0664,-0.0656,-0.0643,-0.0618,-0.0612,-0.0603,-0.0578,-0.0576,-0.0565,-0.0547,-0.0537,-0.0537,-0.0546,-0.0536,-0.0521,-0.0526,-0.0538,-0.054,-0.0541,-0.0533,-0.0534,-0.0524,-0.0524,-0.0524,-0.0524,0,-0.0639,-0.0661,-0.0645,-0.0667,-0.0643,-0.0628,-0.0621,-0.0619,-0.0612,-0.0605,-0.0599,-0.0586,-0.0576,-0.0573,-0.0561,-0.0569,-0.0551,-0.0541,-0.0527,-0.0545,-0.0536,-0.0536,-0.0526,-0.0525,-0.0525,-0.0525,0,0,-0.0656,-0.0654,-0.0659,-0.0678,-0.0655,-0.0644,-0.0648,-0.0644,-0.0657,-0.0637,-0.064,-0.0633,-0.0616,-0.0612,-0.0599,-0.0593,-0.0595,-0.057,-0.0569,-0.0559,-0.0571,-0.0563,-0.0562,-0.0574,-0.0574,-0.0575,-0.0559,0,-0.0668,-0.0673,-0.0669,-0.0691,-0.0689,-0.068,-0.0685,-0.0678,-0.0678,-0.0677,-0.0654,-0.0644,-0.0635,-0.0623,-0.0622,-0.0602,-0.0596,-0.06,-0.0559,-0.0559,-0.0546,-0.0563,-0.0618,-0.0609,-0.056,-0.056,-0.056,0,-0.0673,-0.0685,-0.0693,-0.0721,-0.0718,-0.0726,-0.074,-0.0745,-0.0728,-0.0722,-0.0704,-0.0675,-0.0666,-0.0649,-0.0635,-0.063,-0.0608,-0.0589,-0.0587,-0.0575,-0.0552,-0.0584,-0.0611,-0.0637,-0.056,-0.056,-0.056,0,-0.0687,-0.0713,-0.0727,-0.0733,-0.0741,-0.0753,-0.0758,-0.0749,-0.0757,-0.0741,-0.0732,-0.0711,-0.0696,-0.067,-0.0632,-0.0629,-0.0601,-0.0595,-0.0567,-0.0565,-0.0605,-0.0607,-0.0652,-0.0582,-0.0582,-0.0582,-0.0582,0,-0.0701,-0.0732,-0.0741,-0.0754,-0.0781,-0.0772,-0.0796,-0.0799,-0.0791,-0.0801,-0.0754,-0.0758,-0.0697,-0.0666,-0.0636,-0.0605,-0.0609,-0.0577,-0.0564,-0.0613,-0.0615,-0.0633,-0.0626,-0.0581,-0.0582,-0.0582,-0.0582,0,-0.0717,-0.072,-0.0748,-0.0771,-0.078,-0.0794,-0.0814,-0.0842,-0.0823,-0.0837,-0.082,-0.0783,-0.0748,-0.0684,-0.0637,-0.0615,-0.0591,-0.056,-0.0617,-0.0611,-0.062,-0.0612,-0.0583,-0.0616,-0.0544,-0.0544,-0.0544,0,-0.0723,-0.0729,-0.0755,-0.0775,-0.0793,-0.0817,-0.0837,-0.0844,-0.0876,-0.0866,-0.0879,-0.0822,-0.0808,-0.0723,-0.0662,-0.0598,-0.0584,-0.0597,-0.0611,-0.0636,-0.0618,-0.0579,-0.0607,-0.0671,-0.0671,-0.0672,-0.0673,0,-0.0749,-0.0749,-0.078,-0.0801,-0.0834,-0.0871,-0.0909,-0.093,-0.0944,-0.0967,-0.0987,-0.0961,-0.0864,-0.0819,-0.0699,-0.066,-0.0631,-0.0608,-0.063,-0.072,-0.0686,-0.0707,-0.0658,-0.0679,-0.0678,-0.0678,-0.0677,-0.0677,-0.0759,-0.0792,-0.0817,-0.0843,-0.0883,-0.093,-0.0971,-0.1029,-0.1077,-0.1138,-0.1093,-0.1116,-0.0987,-0.0838,-0.0782,-0.0719,-0.067,-0.0713,-0.0701,-0.0656,-0.0698,-0.0655,-0.066,-0.0659,-0.0659,-0.0658,-0.0658,0,-0.0763,-0.0823,-0.0862,-0.0903,-0.0959,-0.0962,-0.1031,-0.1092,-0.118,-0.1251,-0.1286,-0.1259,-0.1154,-0.1027,-0.0898,-0.0843,-0.0821,-0.0802,-0.0793,-0.0819,-0.0794,-0.0812,-0.0857,-0.0857,-0.0857,-0.0857,-0.0857,-0.0857,-0.0771,-0.0828,-0.086,-0.0961,-0.0997,-0.1088,-0.1129,-0.1228,-0.1305,-0.1459,-0.1519,-0.1526,-0.1393,-0.1085,-0.0968,-0.0927,-0.0925,-0.0856,-0.0847,-0.0869,-0.0861,-0.0853,-0.0872,-0.0929,-0.0929,-0.0912,-0.0912,-0.0912]}],[{"header":{"parameterUnit":"m.s-1","parameterCategory":2,"la1":30.2991,"la2":30.254,"lo1":-89.0895,"lo2":-89.0444,"dy":0.0017,"dx":0.0017,"nx":28,"ny":28,"refTime":"2023-10-30T21:00:00:Z","depth":"2","parameterNumber":2,"parameterNumberName":"U-component_of_CURRENTS"},"data":[0,0,0,0,0,0,0,0,0,0,0,0,0,0,0,0,0,0,0,0,0,0,0,0,0,0,0,0,0,0,0,0,0,0,0,0,0,0,0,0,0,0,0,0,0,0,0,0,0,0,0,0,0,0,0,0,0,0,-0.1533,-0.1533,0,-0.1534,-0.1534,-0.1534,-0.1521,-0.1521,-0.1521,-0.152,-0.1495,-0.1494,-0.1494,0,0,0,0,0,0,0,0,0,0,0,0,0,-0.1458,-0.146,-0.1533,-0.1533,-0.1533,-0.1534,-0.1534,-0.1534,-0.1521,-0.1521,-0.1521,-0.152,-0.1495,-0.1495,-0.1494,0,0,0,0,0,0,0,0,0,0,0,0,0,-0.1477,-0.146,-0.1533,-0.1528,-0.1528,-0.1534,-0.1534,-0.1534,-0.1521,-0.1521,-0.1521,-0.152,-0.1495,-0.1495,-0.1494,-0.1496,0,0,-0.1492,-0.1491,0,0,0,0,0,0,0,0,-0.1476,-0.1479,-0.1529,-0.1528,-0.1528,-0.1528,-0.1498,-0.152,-0.1521,-0.1522,-0.152,-0.152,-0.1505,-0.1503,-0.1503,-0.1495,-0.1494,-0.1492,-0.1491,-0.1491,-0.1491,0,0,0,0,0,0,0,-0.1474,-0.1479,-0.1532,-0.1529,-0.1529,-0.1505,-0.1507,-0.1502,-0.1514,-0.1522,-0.1521,-0.1524,-0.1504,-0.1503,-0.1502,-0.1493,-0.1492,-0.1491,-0.1491,-0.149,-0.1516,-0.1517,0,0,0,0,0,0,-0.1481,-0.1478,-0.1532,-0.1532,-0.1502,-0.1507,-0.151,-0.1527,-0.1514,-0.1513,-0.1524,-0.1523,-0.1505,-0.1503,-0.1501,-0.1501,-0.1491,-0.149,-0.149,-0.1515,-0.1516,-0.1518,0,0,0,0,0,0,-0.148,-0.1487,-0.1532,-0.1505,-0.1509,-0.1509,-0.1529,-0.1528,-0.1523,-0.1517,-0.1514,-0.1521,-0.1504,-0.1502,-0.149,-0.15,-0.149,-0.1489,-0.1514,-0.1515,-0.1517,-0.1502,0,0,0,0,0,0,-0.1478,-0.1487,-0.1501,-0.1506,-0.1511,-0.1531,-0.1529,-0.1528,-0.1526,-0.1525,-0.1513,-0.151,-0.1504,-0.1492,-0.149,-0.1499,-0.1489,-0.1512,-0.1514,-0.1516,-0.1501,-0.1503,-0.1504,0,0,0,0,0,-0.1476,-0.1484,-0.1502,-0.1508,-0.1532,-0.1531,-0.1531,-0.1528,-0.1527,-0.1523,-0.1514,-0.1511,-0.1505,-0.1491,-0.1489,-0.1498,-0.1511,-0.1514,-0.1516,-0.15,-0.1502,-0.1504,0,0,0,0,0,0,-0.1458,-0.1484,-0.1503,-0.1522,-0.1529,-0.1529,-0.1522,-0.1527,-0.1519,-0.1512,-0.1509,-0.1506,-0.1506,-0.1507,-0.1493,-0.1517,-0.1514,-0.1516,-0.1503,-0.1505,-0.1507,-0.1515,-0.1488,0,0,0,0,0,-0.1465,-0.148,-0.1501,-0.1516,-0.1516,-0.1523,-0.1522,-0.1522,-0.1517,-0.1513,-0.1514,-0.1516,-0.1517,-0.1512,-0.1516,-0.1516,-0.1523,-0.1529,-0.153,-0.1532,-0.1541,-0.1551,-0.1554,-0.1526,-0.1526,-0.1526,0,0,-0.1468,-0.148,-0.1494,-0.1514,-0.1515,-0.1525,-0.152,-0.1513,-0.1528,-0.1511,-0.1523,-0.1518,-0.152,-0.1523,-0.1525,-0.1521,-0.1544,-0.1535,-0.1535,-0.1544,-0.1554,-0.1556,-0.1558,-0.1528,-0.1527,-0.1527,0,0,-0.1464,-0.1486,-0.1493,-0.15,-0.1504,-0.1513,-0.1514,-0.152,-0.1524,-0.153,-0.153,-0.1529,-0.1533,-0.1539,-0.154,-0.1557,-0.1554,-0.1563,-0.1571,-0.158,-0.1582,-0.1583,-0.1592,-0.1594,-0.1561,-0.1561,-0.1561,0,-0.1469,-0.1484,-0.1493,-0.1496,-0.1496,-0.1512,-0.1511,-0.1529,-0.1537,-0.1536,-0.1533,-0.1547,-0.1545,-0.1553,-0.1561,-0.156,-0.1562,-0.1554,-0.158,-0.1582,-0.1583,-0.1592,-0.1595,-0.1561,-0.1561,-0.1561,-0.1561,0,-0.1467,-0.1483,-0.1477,-0.1501,-0.1502,-0.1498,-0.1522,-0.1534,-0.1541,-0.1555,-0.1562,-0.1563,-0.1569,-0.1575,-0.1567,-0.1587,-0.1582,-0.1578,-0.1567,-0.1585,-0.1593,-0.1596,-0.156,-0.156,-0.156,-0.156,0,0,-0.1467,-0.1479,-0.1475,-0.1487,-0.1496,-0.15,-0.1519,-0.1535,-0.1552,-0.1566,-0.1575,-0.1587,-0.1586,-0.1592,-0.1591,-0.16,-0.1611,-0.1592,-0.1593,-0.1588,-0.1628,-0.1645,-0.165,-0.1601,-0.1602,-0.1602,-0.1625,0,-0.1462,-0.1463,-0.1467,-0.1483,-0.1486,-0.1499,-0.1518,-0.1536,-0.1552,-0.1575,-0.1579,-0.1591,-0.1596,-0.1589,-0.1603,-0.1609,-0.1621,-0.1606,-0.1623,-0.1624,-0.1626,-0.1655,-0.1481,-0.1489,-0.1629,-0.1629,-0.1629,0,-0.1448,-0.1455,-0.1448,-0.1473,-0.1473,-0.149,-0.1506,-0.1524,-0.1555,-0.1564,-0.1577,-0.1586,-0.1606,-0.1605,-0.1637,-0.1622,-0.163,-0.1636,-0.1637,-0.1663,-0.1648,-0.1497,-0.1489,-0.1635,-0.1635,-0.1634,-0.1634,0,-0.1415,-0.144,-0.1429,-0.1436,-0.1468,-0.1469,-0.1486,-0.1512,-0.1509,-0.1554,-0.1552,-0.1591,-0.1599,-0.162,-0.1646,-0.1634,-0.1679,-0.1662,-0.1688,-0.1689,-0.1553,-0.1541,-0.1688,-0.1688,-0.1687,-0.1687,-0.1687,0,-0.1386,-0.1387,-0.1423,-0.142,-0.1417,-0.1451,-0.1445,-0.1472,-0.1494,-0.1502,-0.1542,-0.1563,-0.1602,-0.1631,-0.165,-0.1691,-0.1686,-0.1703,-0.1702,-0.1545,-0.1533,-0.1671,-0.1669,-0.1688,-0.1688,-0.1688,-0.1688,0,-0.1326,-0.1347,-0.1345,-0.1383,-0.1391,-0.1381,-0.1389,-0.1402,-0.1437,-0.1448,-0.1454,-0.1528,-0.1592,-0.1631,-0.1679,-0.1697,-0.1729,-0.1741,-0.1563,-0.1542,-0.1727,-0.1724,-0.1769,-0.177,-0.177,-0.1771,-0.1772,0,-0.1287,-0.1281,-0.1294,-0.1284,-0.1294,-0.1296,-0.1299,-0.1345,-0.1361,-0.1436,-0.1444,-0.1517,-0.1579,-0.1664,-0.1687,-0.1725,-0.1761,-0.1607,-0.1568,-0.1744,-0.1738,-0.1734,-0.173,-0.1369,-0.1366,-0.1364,-0.1362,0,-0.1218,-0.1216,-0.1211,-0.1197,-0.1198,-0.1194,-0.1218,-0.1223,-0.13,-0.1336,-0.1425,-0.1481,-0.1568,-0.1559,-0.1618,-0.1612,-0.159,-0.1567,-0.1777,-0.1398,-0.1376,-0.1368,-0.1375,-0.1342,-0.1344,-0.1345,-0.1346,-0.1347,-0.1146,-0.1128,-0.1126,-0.1105,-0.1106,-0.1116,-0.1106,-0.1162,-0.1192,-0.1256,-0.1359,-0.1412,-0.144,-0.1469,-0.144,-0.1416,-0.1531,-0.1458,-0.1461,-0.1467,-0.144,-0.1422,-0.1391,-0.1393,-0.1395,-0.1397,-0.1398,0,-0.1075,-0.1076,-0.1047,-0.103,-0.1014,-0.1043,-0.1069,-0.1058,-0.1101,-0.1183,-0.1245,-0.1192,-0.1198,-0.1236,-0.1171,-0.1195,-0.1125,-0.1149,-0.1033,-0.1055,-0.1074,-0.1022,-0.0865,-0.0863,-0.0862,-0.0861,0,0,-0.1029,-0.0993,-0.0987,-0.0946,-0.0948,-0.0918,-0.0926,-0.0936,-0.0964,-0.0998,-0.1036,-0.1134,-0.1199,-0.1027,-0.0993,-0.0923,-0.0972,-0.0875,-0.1298,-0.118,-0.1197,-0.1246,-0.1192,0,0,0,0,0]},{"header":{"parameterUnit":"m.s-1","parameterCategory":2,"la1":30.2991,"la2":30.254,"lo1":-89.0895,"lo2":-89.0444,"dy":0.0017,"dx":0.0017,"nx":28,"ny":28,"refTime":"2023-10-30T21:00:00:Z","depth":"2","parameterNumber":3,"parameterNumberName":"V-component_of_CURRENTS"},"data":[0,0,0,0,0,0,0,0,0,0,0,0,0,0,0,0,0,0,0,0,0,0,0,0,0,0,0,0,0,0,0,0,0,0,0,0,0,0,0,0,0,0,0,0,0,0,0,0,0,0,0,0,0,0,0,0,0,0,-0.0645,-0.0644,0,-0.0531,-0.053,-0.0529,-0.0467,-0.0467,-0.0467,-0.0467,-0.0407,-0.0405,-0.0404,0,0,0,0,0,0,0,0,0,0,0,0,0,-0.0609,-0.0612,-0.0645,-0.0644,-0.0642,-0.0532,-0.053,-0.0529,-0.0468,-0.0467,-0.0467,-0.0466,-0.0407,-0.0406,-0.0404,0,0,0,0,0,0,0,0,0,0,0,0,0,-0.0575,-0.0613,-0.0646,-0.0597,-0.0592,-0.0532,-0.053,-0.0528,-0.0468,-0.0467,-0.0467,-0.0466,-0.0408,-0.0406,-0.0404,-0.04,0,0,-0.0398,-0.0397,0,0,0,0,0,0,0,0,-0.0578,-0.0577,-0.0606,-0.06,-0.0594,-0.0512,-0.0495,-0.0488,-0.0468,-0.0516,-0.0467,-0.0466,-0.0446,-0.0441,-0.0422,-0.0397,-0.0395,-0.0398,-0.0396,-0.0395,-0.0395,0,0,0,0,0,0,0,-0.058,-0.058,-0.0602,-0.0604,-0.0597,-0.0512,-0.0509,-0.0492,-0.0487,-0.0512,-0.0507,-0.0492,-0.0443,-0.0424,-0.042,-0.0394,-0.0398,-0.0396,-0.0395,-0.0394,-0.038,-0.0381,0,0,0,0,0,0,-0.0603,-0.0584,-0.0605,-0.0598,-0.0583,-0.0514,-0.051,-0.054,-0.0486,-0.0477,-0.0492,-0.0489,-0.0428,-0.0423,-0.0418,-0.0412,-0.0395,-0.0394,-0.0392,-0.0379,-0.038,-0.0381,0,0,0,0,0,0,-0.0603,-0.0608,-0.061,-0.0584,-0.0578,-0.0516,-0.0549,-0.0538,-0.0501,-0.047,-0.0462,-0.0466,-0.0427,-0.0421,-0.0401,-0.0409,-0.0393,-0.0391,-0.0378,-0.038,-0.0381,-0.0399,0,0,0,0,0,0,-0.0604,-0.061,-0.0617,-0.0588,-0.058,-0.056,-0.0549,-0.0536,-0.0493,-0.0488,-0.0445,-0.044,-0.0426,-0.0404,-0.0399,-0.0406,-0.0389,-0.0377,-0.0379,-0.038,-0.0397,-0.0401,-0.0403,0,0,0,0,0,-0.0604,-0.06,-0.062,-0.062,-0.0602,-0.0559,-0.0547,-0.05,-0.0492,-0.0468,-0.0455,-0.044,-0.0411,-0.0402,-0.0396,-0.0403,-0.0377,-0.0378,-0.038,-0.0396,-0.04,-0.0403,0,0,0,0,0,0,-0.057,-0.0593,-0.0613,-0.0616,-0.0591,-0.0547,-0.0506,-0.0494,-0.0461,-0.046,-0.044,-0.0433,-0.0423,-0.0412,-0.0404,-0.0408,-0.0396,-0.0397,-0.041,-0.0413,-0.0417,-0.0427,-0.0388,0,0,0,0,0,-0.0578,-0.0602,-0.0594,-0.0599,-0.0582,-0.0551,-0.0521,-0.0505,-0.0478,-0.0461,-0.0448,-0.0438,-0.0429,-0.0418,-0.0409,-0.0401,-0.0394,-0.0408,-0.0411,-0.0413,-0.042,-0.0414,-0.0417,-0.0387,-0.0387,-0.0387,0,0,-0.0577,-0.0584,-0.0602,-0.0595,-0.0571,-0.0558,-0.0531,-0.049,-0.0497,-0.0463,-0.0462,-0.0444,-0.043,-0.0426,-0.0422,-0.0415,-0.0418,-0.0416,-0.0418,-0.0423,-0.0416,-0.0419,-0.0421,-0.0389,-0.0388,-0.0388,0,0,-0.0566,-0.0584,-0.0593,-0.058,-0.055,-0.0536,-0.0527,-0.0498,-0.0493,-0.0489,-0.0478,-0.0468,-0.0449,-0.0449,-0.0444,-0.046,-0.0435,-0.0454,-0.0473,-0.0467,-0.0469,-0.0471,-0.0463,-0.0464,-0.0455,-0.0455,-0.0455,0,-0.0555,-0.059,-0.0578,-0.0571,-0.056,-0.0534,-0.0529,-0.0522,-0.0502,-0.0502,-0.0493,-0.0478,-0.0467,-0.0467,-0.0477,-0.0468,-0.0452,-0.0456,-0.047,-0.0472,-0.0473,-0.0465,-0.0466,-0.0456,-0.0456,-0.0456,-0.0455,0,-0.0557,-0.058,-0.0567,-0.0587,-0.0561,-0.0549,-0.0545,-0.0543,-0.0539,-0.0534,-0.053,-0.0518,-0.0509,-0.0506,-0.0494,-0.0501,-0.0483,-0.0473,-0.0457,-0.0477,-0.0467,-0.0468,-0.0457,-0.0457,-0.0457,-0.0456,0,0,-0.0575,-0.0577,-0.0583,-0.0602,-0.0576,-0.0568,-0.0572,-0.0568,-0.0586,-0.0567,-0.0573,-0.0567,-0.055,-0.0546,-0.0532,-0.0526,-0.0527,-0.0502,-0.0501,-0.0489,-0.0503,-0.0496,-0.0495,-0.0506,-0.0507,-0.0507,-0.0491,0,-0.0589,-0.0596,-0.0594,-0.0619,-0.0616,-0.0607,-0.0612,-0.0606,-0.0608,-0.061,-0.0586,-0.0578,-0.057,-0.0558,-0.0557,-0.0535,-0.0529,-0.0532,-0.0491,-0.049,-0.0476,-0.0496,-0.0382,-0.0359,-0.0491,-0.0491,-0.0491,0,-0.0599,-0.061,-0.0619,-0.0649,-0.0647,-0.0656,-0.0669,-0.0677,-0.0661,-0.0657,-0.0639,-0.061,-0.06,-0.0584,-0.0569,-0.0564,-0.0541,-0.0521,-0.0519,-0.0508,-0.0484,-0.0362,-0.0354,-0.0492,-0.0492,-0.0492,-0.0492,0,-0.0609,-0.064,-0.0654,-0.0661,-0.067,-0.0684,-0.0689,-0.068,-0.0692,-0.0676,-0.0668,-0.0647,-0.0631,-0.0604,-0.0566,-0.0563,-0.0535,-0.0527,-0.0499,-0.0498,-0.0394,-0.0383,-0.0513,-0.0513,-0.0514,-0.0514,-0.0514,0,-0.0625,-0.066,-0.0668,-0.0683,-0.0711,-0.0702,-0.073,-0.0735,-0.0727,-0.0739,-0.0691,-0.0694,-0.0631,-0.06,-0.057,-0.0539,-0.0543,-0.051,-0.0497,-0.0398,-0.0389,-0.0499,-0.0497,-0.0513,-0.0513,-0.0513,-0.0513,0,-0.0644,-0.0647,-0.0677,-0.07,-0.0708,-0.0725,-0.0748,-0.0779,-0.0761,-0.0775,-0.0757,-0.0719,-0.0683,-0.0619,-0.0571,-0.0549,-0.0512,-0.0493,-0.0382,-0.0357,-0.048,-0.0479,-0.0478,-0.0477,-0.0477,-0.0477,-0.0477,0,-0.065,-0.0655,-0.0684,-0.0703,-0.0723,-0.075,-0.0769,-0.0778,-0.0812,-0.0805,-0.0815,-0.0758,-0.0735,-0.065,-0.0519,-0.0437,-0.0501,-0.0355,-0.0346,-0.0491,-0.0478,-0.0478,-0.0478,-0.0207,-0.0205,-0.0203,-0.0201,0,-0.0677,-0.068,-0.0717,-0.0732,-0.0764,-0.0803,-0.0841,-0.0862,-0.088,-0.0893,-0.0912,-0.0878,-0.0719,-0.0564,-0.0421,-0.0364,-0.0361,-0.0318,-0.0478,-0.0249,-0.0238,-0.0225,-0.0233,-0.0184,-0.0186,-0.0187,-0.0188,-0.0189,-0.069,-0.0728,-0.0755,-0.0778,-0.0816,-0.086,-0.0902,-0.0924,-0.0959,-0.0955,-0.095,-0.087,-0.0696,-0.0435,-0.0308,-0.0171,-0.0226,-0.0224,-0.0228,-0.0235,-0.0221,-0.0212,-0.015,-0.0152,-0.0153,-0.0154,-0.0155,0,-0.0673,-0.076,-0.0799,-0.0837,-0.0872,-0.0894,-0.0962,-0.0963,-0.0991,-0.0965,-0.0941,-0.0738,-0.0525,-0.037,-0.0091,0.0001,0.0047,-0.0026,0.002,0.0004,-0.001,0.0015,0.0149,0.0149,0.015,0.015,0,0,-0.0675,-0.0727,-0.0761,-0.0851,-0.0905,-0.0945,-0.0984,-0.0985,-0.096,-0.0915,-0.0855,-0.0724,-0.0531,-0.0311,-0.0122,0.0011,-0.0034,0.0037,-0.0203,-0.018,-0.0197,-0.0102,-0.0079,0,0,0,0,0]}],[{"header":{"parameterUnit":"m.s-1","parameterCategory":2,"la1":30.2991,"la2":30.254,"lo1":-89.0895,"lo2":-89.0444,"dy":0.0017,"dx":0.0017,"nx":28,"ny":28,"refTime":"2023-10-30T21:00:00:Z","depth":"4","parameterNumber":2,"parameterNumberName":"U-component_of_CURRENTS"},"data":[0,0,0,0,0,0,0,0,0,0,0,0,0,0,0,0,0,0,0,0,0,0,0,0,0,0,0,0,0,0,0,0,0,0,0,0,0,0,0,0,0,0,0,0,0,0,0,0,0,0,0,0,0,0,0,0,0,0,-0.0639,-0.064,0,-0.0637,-0.0636,-0.0636,-0.0654,-0.0656,-0.0657,-0.0658,-0.072,-0.072,-0.0721,0,0,0,0,0,0,0,0,0,0,0,0,0,-0.0647,-0.0646,-0.0639,-0.064,-0.064,-0.0637,-0.0636,-0.0635,-0.0654,-0.0656,-0.0657,-0.0659,-0.072,-0.072,-0.0721,0,0,0,0,0,0,0,0,0,0,0,0,0,-0.0636,-0.0646,-0.0639,-0.0655,-0.0657,-0.0637,-0.0636,-0.0635,-0.0654,-0.0656,-0.0658,-0.0659,-0.0719,-0.072,-0.0721,-0.0689,0,0,-0.0723,-0.0724,0,0,0,0,0,0,0,0,-0.0637,-0.0635,-0.0652,-0.0654,-0.0656,-0.0655,-0.0662,-0.0659,-0.0653,-0.0647,-0.0658,-0.066,-0.0708,-0.0709,-0.0693,-0.0691,-0.0694,-0.0723,-0.0724,-0.0724,-0.0724,0,0,0,0,0,0,0,-0.0638,-0.0635,-0.063,-0.0653,-0.0655,-0.0659,-0.0658,-0.066,-0.0662,-0.0648,-0.0651,-0.0662,-0.0708,-0.0692,-0.0695,-0.0695,-0.0723,-0.0724,-0.0724,-0.0725,-0.0814,-0.0816,0,0,0,0,0,0,-0.0652,-0.0636,-0.0631,-0.0631,-0.066,-0.0658,-0.0657,-0.0647,-0.0661,-0.0666,-0.0661,-0.0663,-0.069,-0.0694,-0.0697,-0.0779,-0.0724,-0.0725,-0.0725,-0.0812,-0.0814,-0.0816,0,0,0,0,0,0,-0.0651,-0.065,-0.0631,-0.0641,-0.064,-0.0656,-0.0644,-0.0646,-0.067,-0.0672,-0.0677,-0.0689,-0.0691,-0.0696,-0.0768,-0.0778,-0.0725,-0.0726,-0.081,-0.0813,-0.0815,-0.0867,0,0,0,0,0,0,-0.0651,-0.0649,-0.0657,-0.0641,-0.064,-0.066,-0.0643,-0.0645,-0.0675,-0.0679,-0.0697,-0.0702,-0.0693,-0.0767,-0.0769,-0.0778,-0.0726,-0.0807,-0.0811,-0.0814,-0.0863,-0.0871,-0.0878,0,0,0,0,0,-0.0651,-0.0666,-0.0656,-0.0657,-0.0645,-0.0663,-0.0663,-0.0675,-0.0675,-0.0699,-0.0731,-0.0703,-0.079,-0.0771,-0.0771,-0.0781,-0.0805,-0.081,-0.0814,-0.0859,-0.087,-0.0878,0,0,0,0,0,0,-0.0679,-0.0669,-0.0659,-0.067,-0.0682,-0.067,-0.0693,-0.0694,-0.0728,-0.074,-0.0739,-0.0747,-0.0803,-0.0798,-0.0776,-0.082,-0.0787,-0.0792,-0.0821,-0.0831,-0.0839,-0.085,-0.0727,0,0,0,0,0,-0.0684,-0.0691,-0.0684,-0.0699,-0.0704,-0.0698,-0.071,-0.0716,-0.074,-0.0755,-0.0772,-0.0792,-0.0809,-0.0833,-0.0844,-0.0878,-0.0881,-0.0883,-0.0891,-0.0897,-0.091,-0.0953,-0.0966,-0.0831,-0.0831,-0.083,0,0,-0.0705,-0.0697,-0.0706,-0.0706,-0.0707,-0.0712,-0.071,-0.0739,-0.074,-0.0757,-0.079,-0.0821,-0.0828,-0.0866,-0.0888,-0.0872,-0.0936,-0.0903,-0.0908,-0.0918,-0.0959,-0.0972,-0.0984,-0.0833,-0.0833,-0.0832,0,0,-0.0732,-0.0735,-0.074,-0.0749,-0.0762,-0.0755,-0.0774,-0.0781,-0.0787,-0.0844,-0.0836,-0.0902,-0.0935,-0.0936,-0.094,-0.1002,-0.0974,-0.0994,-0.1043,-0.1085,-0.1097,-0.1107,-0.1115,-0.1125,-0.0999,-0.1,-0.1,0,-0.0752,-0.0746,-0.0753,-0.0753,-0.0769,-0.0777,-0.0789,-0.0782,-0.0819,-0.0855,-0.0879,-0.0965,-0.0967,-0.1,-0.102,-0.1017,-0.103,-0.1002,-0.1095,-0.1105,-0.1114,-0.112,-0.1131,-0.1003,-0.1002,-0.1002,-0.1002,0,-0.0763,-0.0771,-0.0783,-0.0773,-0.0796,-0.0818,-0.0814,-0.0848,-0.0884,-0.0908,-0.0995,-0.1024,-0.1084,-0.1083,-0.1073,-0.1123,-0.1106,-0.1096,-0.1067,-0.1131,-0.1133,-0.1143,-0.1007,-0.1006,-0.1005,-0.1004,0,0,-0.0761,-0.0782,-0.0785,-0.0787,-0.0811,-0.0824,-0.0851,-0.0891,-0.0936,-0.0999,-0.1078,-0.1118,-0.1164,-0.1171,-0.1158,-0.1199,-0.1261,-0.1182,-0.1182,-0.1182,-0.1341,-0.1195,-0.1191,-0.1273,-0.1276,-0.1278,-0.131,0,-0.0761,-0.0766,-0.0786,-0.0807,-0.0811,-0.0851,-0.0874,-0.0923,-0.0997,-0.1076,-0.1128,-0.1193,-0.1174,-0.1218,-0.1256,-0.1253,-0.1294,-0.1252,-0.1286,-0.1286,-0.1143,-0.12,-0.1286,-0.1317,-0.1319,-0.1321,-0.1322,0,-0.0741,-0.0754,-0.0775,-0.0817,-0.0826,-0.0849,-0.0936,-0.0958,-0.1067,-0.1132,-0.1237,-0.1286,-0.133,-0.1322,-0.1369,-0.1346,-0.1355,-0.1365,-0.1366,-0.1221,-0.116,-0.1245,-0.134,-0.1339,-0.1338,-0.1336,-0.1335,0,-0.0702,-0.0738,-0.0758,-0.0771,-0.0824,-0.0862,-0.0896,-0.1003,-0.1034,-0.1169,-0.1248,-0.1333,-0.1357,-0.141,-0.1421,-0.1407,-0.1487,-0.1461,-0.1345,-0.1334,-0.1431,-0.142,-0.1531,-0.1531,-0.1531,-0.1531,-0.1531,0,-0.0664,-0.0679,-0.0745,-0.0749,-0.0798,-0.0845,-0.0918,-0.0978,-0.1076,-0.1127,-0.1254,-0.1296,-0.1388,-0.1443,-0.1461,-0.1417,-0.1511,-0.1363,-0.1341,-0.1449,-0.1441,-0.1437,-0.1425,-0.1532,-0.1532,-0.1532,-0.1532,0,-0.059,-0.064,-0.0672,-0.0747,-0.0772,-0.0808,-0.0885,-0.093,-0.1033,-0.1106,-0.1141,-0.126,-0.1303,-0.1394,-0.1464,-0.142,-0.1432,-0.1406,-0.1511,-0.1493,-0.124,-0.1231,-0.1263,-0.1258,-0.1254,-0.1251,-0.1248,0,-0.0532,-0.055,-0.0644,-0.0655,-0.0687,-0.0747,-0.0777,-0.0893,-0.0926,-0.1055,-0.106,-0.1163,-0.1232,-0.1235,-0.131,-0.1349,-0.1337,-0.1341,-0.1298,-0.1242,-0.1218,-0.1215,-0.1212,-0.1242,-0.1241,-0.124,-0.1239,0,-0.044,-0.0502,-0.0511,-0.0554,-0.0601,-0.0661,-0.0704,-0.0713,-0.0832,-0.0937,-0.0979,-0.104,-0.1081,-0.1135,-0.1185,-0.1208,-0.1338,-0.1299,-0.1307,-0.1266,-0.1216,-0.1196,-0.1197,-0.1225,-0.1227,-0.1228,-0.1229,0,-0.0358,-0.0363,-0.0398,-0.0427,-0.0499,-0.0551,-0.0595,-0.0625,-0.0697,-0.0829,-0.0826,-0.0953,-0.105,-0.1058,-0.1096,-0.1113,-0.1081,-0.1058,-0.1078,-0.1094,-0.1022,-0.0933,-0.0845,0,0,0,0,0,-0.0288,-0.0262,-0.0254,-0.0307,-0.0374,-0.0439,-0.0528,-0.0572,-0.0692,-0.0691,-0.076,-0.0808,-0.0863,-0.0917,-0.0896,-0.0978,-0.1068,-0.0946,-0.1048,-0.1148,-0.1164,-0.1093,0,0,0,0,0,0,-0.024,-0.0207,-0.0215,-0.0224,-0.0219,-0.0318,-0.0394,-0.0461,-0.0471,-0.0579,-0.0622,-0.072,-0.0791,-0.0855,-0.0865,-0.0879,-0.0918,-0.1015,-0.1012,-0.1139,-0.1154,-0.1166,-0.1099,0,0,0,0,0]},{"header":{"parameterUnit":"m.s-1","parameterCategory":2,"la1":30.2991,"la2":30.254,"lo1":-89.0895,"lo2":-89.0444,"dy":0.0017,"dx":0.0017,"nx":28,"ny":28,"refTime":"2023-10-30T21:00:00:Z","depth":"4","parameterNumber":3,"parameterNumberName":"V-component_of_CURRENTS"},"data":[0,0,0,0,0,0,0,0,0,0,0,0,0,0,0,0,0,0,0,0,0,0,0,0,0,0,0,0,0,0,0,0,0,0,0,0,0,0,0,0,0,0,0,0,0,0,0,0,0,0,0,0,0,0,0,0,0,0,0.049,0.049,0,0.05,0.0501,0.0501,0.0524,0.0524,0.0524,0.0524,0.0535,0.0535,0.0535,0,0,0,0,0,0,0,0,0,0,0,0,0,0.0422,0.0424,0.049,0.049,0.0489,0.05,0.0501,0.0501,0.0524,0.0524,0.0524,0.0524,0.0535,0.0535,0.0535,0,0,0,0,0,0,0,0,0,0,0,0,0,0.0449,0.0425,0.049,0.0499,0.0499,0.05,0.0501,0.0501,0.0524,0.0524,0.0524,0.0524,0.0535,0.0535,0.0535,0.0537,0,0,0.0537,0.0537,0,0,0,0,0,0,0,0,0.0447,0.0452,0.0498,0.0498,0.0498,0.0507,0.048,0.0512,0.0524,0.052,0.0524,0.0524,0.0522,0.0524,0.0532,0.0537,0.0538,0.0537,0.0537,0.0537,0.0537,0,0,0,0,0,0,0,0.0445,0.0451,0.0499,0.0497,0.0498,0.0478,0.0483,0.0486,0.0524,0.052,0.0521,0.0514,0.0523,0.0532,0.0533,0.0538,0.0537,0.0537,0.0537,0.0537,0.0546,0.0546,0,0,0,0,0,0,0.0438,0.045,0.0498,0.0499,0.0467,0.0479,0.0485,0.0508,0.0524,0.0525,0.0514,0.0515,0.0531,0.0532,0.0533,0.0527,0.0537,0.0537,0.0538,0.0546,0.0546,0.0546,0,0,0,0,0,0,0.0438,0.0444,0.0498,0.0468,0.0473,0.048,0.0506,0.0508,0.0511,0.0519,0.0521,0.0513,0.0531,0.0533,0.053,0.0528,0.0537,0.0538,0.0546,0.0546,0.0546,0.0521,0,0,0,0,0,0,0.0436,0.0444,0.0457,0.0469,0.0475,0.0501,0.0505,0.0508,0.0504,0.0506,0.0518,0.052,0.0532,0.0529,0.053,0.0529,0.0538,0.0546,0.0546,0.0546,0.0521,0.052,0.0518,0,0,0,0,0,0.0434,0.0435,0.0458,0.0463,0.0494,0.05,0.0502,0.0509,0.0504,0.0511,0.0511,0.0519,0.0531,0.0529,0.0531,0.0529,0.0546,0.0546,0.0546,0.0522,0.052,0.0518,0,0,0,0,0,0,0.0403,0.0438,0.0463,0.0475,0.0493,0.0502,0.0491,0.0503,0.0509,0.0498,0.0515,0.0517,0.0511,0.0525,0.0523,0.0533,0.0542,0.0542,0.0523,0.0521,0.052,0.0514,0.0538,0,0,0,0,0,0.0406,0.0426,0.0454,0.0465,0.0466,0.0482,0.0481,0.0489,0.0493,0.0496,0.0509,0.0515,0.0514,0.052,0.0523,0.0529,0.0532,0.0531,0.0529,0.0528,0.0525,0.0517,0.0514,0.0546,0.0546,0.0546,0,0,0.0395,0.0416,0.0427,0.0461,0.0467,0.0474,0.0482,0.0473,0.0495,0.0493,0.0514,0.0502,0.0511,0.0514,0.0515,0.0526,0.0523,0.0528,0.0526,0.0524,0.0517,0.0513,0.051,0.0546,0.0546,0.0546,0,0,0.0371,0.0402,0.0408,0.0415,0.0424,0.0448,0.0445,0.046,0.0483,0.0498,0.0493,0.0483,0.0502,0.0506,0.0509,0.0502,0.0506,0.0502,0.0499,0.0491,0.0488,0.0485,0.0493,0.0492,0.0512,0.0512,0.0511,0,0.0354,0.0384,0.0406,0.0401,0.0401,0.0437,0.0433,0.0467,0.0487,0.0498,0.0503,0.0494,0.0503,0.0493,0.0492,0.0498,0.0494,0.0503,0.0487,0.0485,0.0482,0.0492,0.049,0.051,0.051,0.0511,0.0511,0,0.0337,0.0354,0.0344,0.0377,0.0378,0.0378,0.0417,0.0452,0.048,0.0497,0.0494,0.0494,0.0484,0.049,0.0491,0.0473,0.0475,0.0475,0.0489,0.0477,0.0488,0.0487,0.0509,0.0509,0.0509,0.051,0,0,0.0322,0.0339,0.0337,0.0351,0.0364,0.0372,0.0411,0.0459,0.047,0.0499,0.049,0.05,0.047,0.0471,0.0459,0.0464,0.045,0.046,0.0461,0.0463,0.0434,0.0437,0.0437,0.0436,0.0436,0.0435,0.0451,0,0.0314,0.0312,0.0322,0.0333,0.0335,0.0372,0.0389,0.0423,0.0465,0.047,0.0476,0.0438,0.0473,0.0425,0.0444,0.0433,0.0443,0.0446,0.045,0.0451,0.0449,0.0434,0.0433,0.045,0.045,0.045,0.045,0,0.0308,0.0308,0.0303,0.0318,0.0316,0.0323,0.0363,0.0372,0.0392,0.0415,0.0403,0.0374,0.0366,0.0377,0.0405,0.0398,0.0414,0.0426,0.0427,0.0436,0.045,0.0463,0.0448,0.0448,0.0448,0.0448,0.0448,0,0.0309,0.0311,0.0317,0.0314,0.0317,0.0328,0.0327,0.034,0.0333,0.0335,0.032,0.0316,0.0277,0.0312,0.0343,0.0358,0.0366,0.0395,0.0423,0.0424,0.0429,0.0431,0.0406,0.0406,0.0406,0.0406,0.0406,0,0.0318,0.033,0.0315,0.0316,0.0293,0.0277,0.0265,0.0286,0.0249,0.0214,0.0245,0.022,0.0251,0.0255,0.0311,0.0363,0.0348,0.0417,0.0422,0.042,0.0421,0.0428,0.0431,0.0406,0.0406,0.0406,0.0406,0,0.0341,0.0333,0.0337,0.0319,0.0295,0.0265,0.0212,0.021,0.0182,0.0137,0.0107,0.012,0.0148,0.0199,0.0235,0.031,0.0357,0.0372,0.0361,0.0366,0.0437,0.0438,0.0428,0.0428,0.0428,0.0428,0.0428,0,0.0369,0.0361,0.0327,0.0333,0.0331,0.0282,0.0247,0.0176,0.0155,0.0089,0.0058,0.0035,0.007,0.013,0.0212,0.0317,0.0336,0.0367,0.0419,0.043,0.0436,0.0437,0.0438,0.0429,0.0429,0.0429,0.0429,0,0.0409,0.0391,0.0396,0.0381,0.0353,0.0287,0.0222,0.0177,0.0082,0.0068,-0.0013,-0.0002,0.0037,0.0109,0.0168,0.0256,0.0356,0.0369,0.0371,0.042,0.043,0.0437,0.0437,0.0429,0.0429,0.0429,0.0429,0,0.0447,0.0446,0.0448,0.0432,0.0391,0.0291,0.0253,0.0179,0.0075,-0.0026,-0.0053,-0.0021,-0.0032,0.0077,0.0145,0.0217,0.0269,0.0312,0.0318,0.0319,0.0293,0.029,0.0243,0,0,0,0,0,0.0469,0.0484,0.0508,0.0463,0.0441,0.0376,0.0243,0.02,0.0076,0.0003,-0.005,-0.0027,0.0045,0.0081,0.0154,0.0215,0.0328,0.0311,0.0391,0.043,0.043,0.0419,0,0,0,0,0,0,0.0485,0.053,0.0511,0.0479,0.0478,0.0378,0.0273,0.0199,0.0129,0.0046,0.0068,0.0038,0.011,0.0018,0.0177,0.0201,0.027,0.0335,0.0337,0.0431,0.043,0.043,0.0419,0,0,0,0,0]}]]